Regional Weather Roundup
Issued by NWS Charleston, SC

Current Version | Previous Version | Graphics & Text | Print | Product List | Glossary On
Versions: 1 2 3 4 5 6 7 8 9 10 11 12 13 14 15 16 17 18 19 20 21 22 23 24 25 26 27 28 29 30 31 32 33 34 35 36 37 38 39 40 41 42 43 44 45 46 47 48 49 50
000 ASUS42 KCHS 270512 RWRCHS REGIONAL WEATHER ROUNDUP NATIONAL WEATHER SERVICE CHARLESTON SC 100 AM EDT FRI MAR 27 2015 NOTE: "FAIR" INDICATES FEW OR NO CLOUDS BELOW 12,000 FEET WITH NO SIGNIFICANT WEATHER AND/OR OBSTRUCTIONS TO VISIBILITY. NOT ALL STATIONS ARE QUALITY CONTROLLED BY THE NATIONAL WEATHER SERVICE. USE DATA WITH CAUTION...ESPECIALLY DEWPOINT OBSERVATIONS. SCZ027-030-031-034>040-042>050-270600- ...SOUTHEAST SOUTH CAROLINA... CITY SKY/WX TMP DP RH WIND PRES REMARKS N CHARLESTON LGT RAIN 65 60 84 SW8 29.80F WATERFRONT PRK N/A 66 N/A N/A SW10G18 N/A MOUNT PLEASANT LGT RAIN 66 64 94 SW8G16 29.80S PINOPOLIS N/A 68 61 77 SW7 29.71F MONCKS CORNER CLOUDY 66 57 72 CALM 29.79F SUMMERVILLE CLOUDY 64 59 82 CALM 29.80F BEAUFORT MCAS CLOUDY 66 62 87 S7 29.79F BEAUFORT ARPT CLOUDY 64 64 100 S7 29.79F HILTON HEAD IS CLOUDY 64 64 100 S7 29.81F WALTERBORO CLOUDY 64 61 88 CALM 29.80S ALLENDALE FAIR 66 63 88 CALM 29.78F ...SOUTHERN MIDLANDS AND PEE DEE... CITY SKY/WX TMP DP RH WIND PRES REMARKS GEORGETOWN NOT AVBL KINGSTREE NOT AVBL ORANGEBURG CLOUDY 67 58 72 SW12 29.77F BARNWELL MOCLDY 66 61 82 SW8 29.78F AIKEN FAIR 63 54 72 SW14 29.80F MANNING CLOUDY 64 57 77 S7 29.78S COLUMBIA CLOUDY 68 56 65 SW10 29.74F SUMTER MOCLDY 65 60 84 S9 29.74F FLORENCE CLOUDY 68 58 70 SW12 29.76S MYRTLE BEACH CLOUDY 66 57 72 SW12 29.80F N MYRTLE BEACH CLOUDY 62 60 93 SW16 29.78S $$ GAZ063-065-086>088-099>101-113>116-118-119-134>141-150-270600- ...SOUTHEAST GEORGIA... CITY SKY/WX TMP DP RH WIND PRES REMARKS SAVANNAH ARPT CLOUDY 66 63 90 S7 29.80F HUNTER AAF CLOUDY 65 65 100 S7 29.79F FORT STEWART CLOUDY 66 64 94 SW6 29.80S STATESBORO CLOUDY 64 64 100 W6 29.81F SYLVANIA CLOUDY 64 64 99 SW6 29.81F CLAXTON CLOUDY 64 64 100 W6 29.82F ...CSRA...CENTRAL AND FAR SOUTHEAST GEORGIA... CITY SKY/WX TMP DP RH WIND PRES REMARKS THOMSON CLOUDY 66 62 87 SW6 29.81F AUGUSTA-BUSH CLOUDY 65 58 78 SW12 29.76F AUGUSTA-DANIEL CLOUDY 66 58 75 SW9 29.77F SWAINSBORO FAIR 66 61 82 SW5 29.81F VIDALIA CLOUDY 63 63 100 SW6 29.82F EASTMAN FAIR 64 64 100 SW3 29.84F HAZLEHURST CLOUDY 64 64 100 SW3 29.82F ALMA CLOUDY 65 62 90 SW7 29.83F WAYCROSS CLOUDY 67 66 96 W10 29.84F JESUP CLOUDY 68 68 100 W6 29.83F BAXLEY CLOUDY 66 64 94 SW5 29.83F BRUNSWICK CLOUDY 68 64 88 SW14 29.84S SAINT SIMONS MOCLDY 66 64 93 SW16 29.84S $$ SCZ027-028-034-036>038-045-046-048>050-GAZ119-141-270600- ...LAKE AND SUPPLEMENTAL COASTAL OBSERVATIONS... STATION/POSITION TIME TEMP WIND PRES WAVE SWELL AIR SEA DIR/SP/G HT/PER HT/PER/DIR (UTC) (F) (DEG/KT/KT) (MB) (FT/S) (FT/S/D) UPR LAKE MARION NOT AVBL WINYAH BAY NOT AVBL LAKE MURRAY 0400 66 210/ 7/ 9 1007.1F ACE BASIN NERRS NOT AVBL FORT PULASKI 0400 64 60 200/ 8/ 13 1010.4R SAPELO ISLAND 0400 66 190/ 11 1010.0S $$ ANZ835-935-AMZ111-154-330-350-352-354-370-450-454-472-270600- ...C-MAN AND BUOY OBSERVATIONS... STATION/POSITION TIME TEMP WIND PRES WAVE SWELL AIR SEA DIR/SP/G HT/PER HT/PER/DIR (UTC) (F) (DEG/KT/KT) (MB) (FT/S) (FT/S/D) BUOY 41004 0450 70 71 200/ 14/ 16 1009.0R 5/ 8 3/ 8 BUOY 41008 0450 64 62 200/ 16/ 17 1009.3F 3/ 8 3/110/ 8 FOLLY BEACH CMAN 0500 63 230/ 7/ 9 1009.2F CAPERS NEARSHORE 0400 62 240/ 6/ 8 N/A FRIPP NEARSHORE 0400 63 190/ 12/ 14 1009.3F STATION/POSITION TIME TEMP WIND PRES WAVE SWELL AIR SEA DIR/SP/G HT/PER HT/PER/DIR (UTC) (F) (DEG/KT/KT) (MB) (FT/S) (FT/S/D) 5E ST. MARYS GA 0421 63 N/A 3/ 8 FRYING PAN BUOY 0450 71 66 200/ 14/ 16 1009.4F 6/ 8 5/130/ 8 BUOY 41025 NOT AVBL CAPE LOOKOUT NC 0400 63 190/ 11/ 13 1008.9F BUOY 41002 0450 70 69 190/ 21/ 25 1013.3F 8/ 7 BUOY 41010 0420 76 76 200/ 21/ 25 1012.3F ST AUGUSTINE FL 0500 67 64 230/ 6/ 8 1011.7F $$

USA.gov is the U.S. government's official web portal to all federal, state and local government web resources and services.